GW6916 Weather Reports


Display with metric or nautical units.
time (UTC)temp
F
wind
direction
speed
MPH
gust
MPH
rain 1hr
in
rain 24hr
in
rain mn
in
humidity
%
barometer
mb
20260906082945 73 52 0.0 0.0 0.00 0.00 0.00 95 1013.0
20260906082441 73 307 1.0 1.0 0.00 0.00 0.00 95 1012.8
20260906081937 73 219 0.0 0.0 0.00 0.00 0.00 95 1012.8
20260906081432 73 219 0.0 0.0 0.00 0.00 0.00 95 1012.8
20260906080928 73 221 1.0 1.0 0.00 0.00 0.00 95 1012.7
20260906080425 73 175 0.0 0.0 0.00 0.00 0.00 95 1012.6
20260906075925 73 175 0.0 0.0 0.00 0.00 0.00 95 1012.4
20260906075420 73 175 0.0 0.0 0.00 0.00 0.00 95 1012.4
20260906074915 73 175 0.0 0.0 0.00 0.00 0.00 95 1012.8
20260906074414 73 159 0.0 0.0 0.00 0.00 0.00 94 1012.5
20260906073913 73 159 0.0 0.0 0.00 0.00 0.00 94 1012.4
20260906073408 73 159 0.0 0.0 0.00 0.00 0.00 94 1012.5
20260906072905 73 117 0.0 0.0 0.00 0.00 0.00 94 1012.7
20260906072400 73 116 0.0 0.0 0.00 0.00 0.00 93 1012.3
20260906071856 74 97 0.0 0.0 0.00 0.00 0.00 93 1012.8
20260906071351 74 105 1.0 1.0 0.00 0.00 0.00 93 1012.8
20260906070847 74 41 1.0 2.0 0.00 0.00 0.00 94 1012.7
20260906070343 73 354 2.0 2.0 0.00 0.00 0.00 95 1012.8
20260906065838 73 160 0.0 0.0 0.00 0.00 0.00 95 1012.6
20260906065332 73 159 0.0 0.0 0.00 0.00 0.00 94 1012.6
20260906064828 74 196 2.0 2.0 0.00 0.00 0.00 94 1012.8
20260906064325 74 226 0.0 1.0 0.00 0.00 0.00 94 1012.7
20260906063824 74 249 1.0 1.0 0.00 0.00 0.00 95 1012.6
20260906063320 73 104 1.0 1.0 0.00 0.00 0.00 96 1012.4
20260906062815 73 193 1.0 1.0 0.00 0.00 0.00 96 1012.5
20260906062314 73 188 0.0 0.0 0.00 0.00 0.00 96 1012.8
20260906061809 73 187 1.0 1.0 0.00 0.00 0.00 95 1012.9
20260906061306 74 188 2.0 2.0 0.00 0.00 0.00 95 1012.9
20260906060801 74 174 2.0 2.0 0.00 0.00 0.00 94 1013.3
20260906060258 74 104 0.0 0.0 0.00 0.00 0.00 94 1013.2
20260906055754 74 103 0.0 0.0 0.00 0.00 0.00 94 1013.3
20260906055249 74 88 1.0 1.0 0.00 0.00 0.00 94 1013.4
20260906054744 74 182 1.0 1.0 0.00 0.00 0.00 94 1013.5
20260906054239 74 182 1.0 1.0 0.00 0.00 0.00 94 1013.6
20260906053736 74 183 1.0 1.0 0.00 0.00 0.00 94 1013.7
20260906053232 75 181 0.0 0.0 0.00 0.00 0.00 93 1013.7
20260906052726 75 80 0.0 0.0 0.00 0.00 0.00 93 1013.8
20260906052223 75 243 0.0 1.0 0.00 0.00 0.00 94 1013.7
20260906051720 74 137 0.0 0.0 0.00 0.00 0.00 94 1013.6
20260906051219 74 100 0.0 1.0 0.00 0.00 0.00 94 1013.6
20260906050714 75 47 1.0 2.0 0.00 0.00 0.00 93 1013.7
20260906050209 75 220 0.0 0.0 0.00 0.00 0.00 94 1013.8
20260906045708 75 216 1.0 1.0 0.00 0.00 0.00 94 1013.9
20260906045203 75 215 0.0 0.0 0.00 0.00 0.00 94 1013.7
20260906044659 75 214 0.0 0.0 0.00 0.00 0.00 94 1013.9
20260906044154 75 215 0.0 0.0 0.00 0.00 0.00 94 1013.9
20260906043650 75 200 0.0 0.0 0.00 0.00 0.00 94 1014.0
20260906043145 75 176 0.0 1.0 0.00 0.00 0.00 94 1013.7
20260906042645 75 164 1.0 1.0 0.00 0.00 0.00 93 1013.7
20260906042144 75 165 1.0 1.0 0.00 0.00 0.00 93 1013.5
20260906041640 76 160 1.0 1.0 0.00 0.00 0.00 92 1013.8
20260906041135 76 195 0.0 1.0 0.00 0.00 0.00 91 1013.6
20260906040631 76 275 2.0 2.0 0.00 0.00 0.00 92 1014.0
20260906040126 75 242 1.0 1.0 0.00 0.00 0.00 95 1013.8
20260906035621 75 257 1.0 1.0 0.00 0.01 0.01 96 1013.7
20260906035117 75 175 0.0 0.0 0.00 0.01 0.01 96 1013.7
20260906034617 75 174 0.0 0.0 0.00 0.01 0.01 95 1014.1
20260906034112 75 174 1.0 2.0 0.00 0.01 0.01 95 1014.1
20260906033608 75 222 0.0 0.0 0.00 0.01 0.01 95 1014.0
20260906033103 75 245 1.0 1.0 0.00 0.01 0.01 95 1014.1
20260906032600 75 190 0.0 0.0 0.00 0.01 0.01 95 1014.2
20260906032059 75 190 1.0 1.0 0.00 0.01 0.01 95 1014.2
20260906031554 75 167 1.0 2.0 0.00 0.01 0.01 95 1014.1
20260906031050 75 179 1.0 1.0 0.00 0.01 0.01 95 1014.0
20260906030549 76 170 1.0 1.0 0.00 0.01 0.01 95 1014.1
20260906030049 76 160 2.0 2.0 0.00 0.01 0.01 95 1013.9
20260906025549 76 164 3.0 5.0 0.00 0.01 0.01 94 1014.0
20260906025047 76 185 2.0 3.0 0.00 0.01 0.01 94 1014.0
20260906024543 76 147 5.0 5.0 0.00 0.01 0.01 93 1014.0
20260906024043 76 167 1.0 1.0 0.00 0.01 0.01 93 1013.6
20260906023539 77 182 1.0 2.0 0.00 0.01 0.01 93 1013.5
20260906023034 77 221 1.0 1.0 0.00 0.01 0.01 92 1013.7
20260906022529 77 219 0.0 1.0 0.00 0.01 0.01 93 1013.5
20260906022024 77 296 3.0 3.0 0.00 0.01 0.01 94 1013.6
20260906021520 77 297 3.0 3.0 0.00 0.01 0.01 94 1013.9
20260906021014 76 247 1.0 1.0 0.00 0.01 0.01 95 1013.8
20260906020513 76 320 0.0 0.0 0.00 0.01 0.01 95 1013.8
20260906020013 76 223 1.0 1.0 0.00 0.01 0.01 95 1013.9
20260906015512 76 165 0.0 0.0 0.00 0.01 0.01 94 1013.8
20260906015012 76 164 1.0 2.0 0.00 0.01 0.01 94 1013.9
20260906014507 77 166 2.0 2.0 0.00 0.01 0.01 93 1013.9
20260906014003 77 214 1.0 1.0 0.00 0.01 0.01 93 1014.0
20260906013458 77 213 1.0 2.0 0.00 0.01 0.01 92 1013.8
20260906012954 77 166 2.0 2.0 0.00 0.01 0.01 91 1013.9
20260906012449 78 186 1.0 1.0 0.00 0.01 0.01 89 1013.9
20260906011948 78 150 3.0 3.0 0.00 0.01 0.01 88 1014.1
20260906011444 78 176 3.0 3.0 0.00 0.01 0.01 84 1013.9
20260906010939 78 148 1.0 1.0 0.00 0.01 0.01 83 1013.6
20260906010434 78 156 1.0 1.0 0.00 0.01 0.01 82 1013.3
20260906005930 78 191 1.0 1.0 0.00 0.01 0.01 82 1013.7
20260906005429 79 172 1.0 1.0 0.00 0.01 0.01 80 1013.5
20260906004927 80 136 1.0 2.0 0.00 0.01 0.01 78 1013.2
20260906004422 80 7 1.0 1.0 0.00 0.01 0.01 78 1013.0
20260906003918 80 344 3.0 5.0 0.00 0.01 0.01 77 1013.1
20260906003413 80 341 4.0 5.0 0.00 0.01 0.01 76 1012.7
20260906002908 80 155 1.0 1.0 0.00 0.01 0.01 75 1012.5
20260906002408 80 342 3.0 3.0 0.00 0.01 0.01 76 1012.3
20260906001903 81 100 1.0 1.0 0.00 0.01 0.01 75 1012.1
20260906001359 81 81 1.0 2.0 0.00 0.01 0.01 77 1012.4
20260906000859 81 131 0.0 0.0 0.00 0.01 0.01 75 1012.5
20260906000359 80 69 1.0 1.0 0.00 0.01 0.01 74 1012.5
20260905235855 80 168 0.0 0.0 0.00 0.01 0.01 84 1012.9
20260905235349 80 185 0.0 0.0 0.00 0.01 0.01 85 1012.6
20260905234844 81 184 0.0 0.0 0.00 0.01 0.01 84 1012.9
20260905234339 81 179 0.0 0.0 0.00 0.01 0.01 84 1012.7
20260905233834 81 190 0.0 1.0 0.00 0.01 0.01 83 1012.7
20260905233329 81 214 1.0 2.0 0.00 0.01 0.01 83 1012.9
20260905232828 81 296 3.0 3.0 0.00 0.01 0.01 83 1013.0
20260905232325 82 267 3.0 3.0 0.00 0.01 0.01 82 1012.9
20260905231820 82 183 1.0 1.0 0.00 0.01 0.01 80 1012.9
20260905231315 83 190 1.0 2.0 0.00 0.01 0.01 78 1012.8
20260905230811 84 184 5.0 7.0 0.00 0.01 0.01 74 1012.9
20260905230309 84 193 3.0 3.0 0.00 0.01 0.01 69 1012.8
20260905225809 84 180 2.0 2.0 0.00 0.01 0.01 69 1012.7
20260905225306 84 138 2.0 2.0 0.00 0.01 0.01 67 1012.6
20260905224803 84 174 0.0 1.0 0.00 0.01 0.01 69 1012.7
20260905224259 83 34 3.0 3.0 0.00 0.01 0.01 70 1012.6
20260905223755 84 63 1.0 2.0 0.00 0.01 0.01 69 1012.5
20260905223252 84 75 3.0 5.0 0.00 0.01 0.01 69 1012.6
20260905222747 84 79 3.0 3.0 0.00 0.01 0.01 68 1012.5
20260905222246 84 108 4.0 5.0 0.00 0.01 0.01 68 1012.6
20260905221742 84 55 4.0 5.0 0.00 0.01 0.01 67 1012.8
20260905221239 85 33 3.0 5.0 0.00 0.01 0.01 69 1012.8
20260905220734 84 5 3.0 3.0 0.00 0.01 0.01 72 1012.9
20260905220230 84 351 3.0 3.0 0.00 0.01 0.01 71 1012.7
20260905215729 85 29 2.0 2.0 0.00 0.01 0.01 70 1012.8
20260905215225 85 348 3.0 5.0 0.00 0.01 0.01 70 1012.5
20260905214721 85 34 2.0 2.0 0.00 0.01 0.01 70 1012.3
20260905214216 86 24 3.0 3.0 0.00 0.01 0.01 68 1012.6
20260905213712 86 53 2.0 3.0 0.00 0.01 0.01 68 1012.5
20260905213208 85 63 1.0 1.0 0.00 0.01 0.01 70 1012.5
20260905212702 83 219 0.0 0.0 0.00 0.01 0.01 74 1012.5
20260905212201 84 263 2.0 3.0 0.00 0.01 0.01 75 1012.7
20260905211656 83 185 1.0 1.0 0.00 0.01 0.01 76 1013.1
20260905211152 84 182 2.0 2.0 0.00 0.01 0.01 74 1012.8
20260905210648 84 201 1.0 1.0 0.00 0.01 0.01 73 1012.8
20260905210148 84 175 2.0 3.0 0.00 0.01 0.01 72 1013.1
20260905205648 84 160 3.0 3.0 0.00 0.01 0.01 71 1013.2
20260905205147 83 175 1.0 1.0 0.00 0.01 0.01 75 1013.5
20260905204646 82 290 3.0 3.0 0.00 0.01 0.01 74 1013.6
20260905204142 81 163 3.0 3.0 0.00 0.01 0.01 77 1013.4
20260905203636 83 171 4.0 6.0 0.00 0.01 0.01 77 1013.3
20260905203132 83 247 3.0 3.0 0.00 0.01 0.01 76 1013.4
20260905202627 83 168 4.0 5.0 0.00 0.01 0.01 74 1013.5
20260905202122 83 153 4.0 5.0 0.00 0.01 0.01 77 1014.1
20260905201618 83 167 5.0 7.0 0.00 0.01 0.01 77 1014.5
20260905201117 85 178 4.0 6.0 0.00 0.01 0.01 72 1014.5
20260905200613 85 295 4.0 6.0 0.05 0.01 0.01 67 1014.2
20260905200109 86 13 2.0 3.0 0.05 0.01 0.01 70 1014.0
20260905195607 87 47 2.0 3.0 0.00 0.00 0.00 68 1013.8
20260905195103 88 335 3.0 6.0 0.00 0.00 0.00 65 1013.9
20260905194602 89 66 5.0 9.0 0.00 0.00 0.00 60 1013.6
20260905194101 92 2 8.0 10.0 0.00 0.00 0.00 52 1013.4
20260905193556 95 357 8.0 9.0 0.00 0.00 0.00 48 1012.8
20260905193051 96 316 3.0 3.0 0.00 0.00 0.00 45 1012.8
20260905192548 96 6 3.0 3.0 0.00 0.00 0.00 44 1012.5
20260905192044 96 332 2.0 2.0 0.00 0.00 0.00 42 1012.5
20260905191542 97 50 3.0 5.0 0.00 0.00 0.00 41 1012.8
20260905191041 97 319 3.0 3.0 0.00 0.00 0.00 42 1012.7
20260905190539 97 255 6.0 7.0 0.00 0.00 0.00 41 1012.6
20260905190033 100 15 4.0 6.0 0.00 0.00 0.00 39 1012.7
20260905185533 100 207 1.0 1.0 0.00 0.00 0.00 41 1012.6
20260905185033 98 131 2.0 2.0 0.00 0.00 0.00 40 1012.6
20260905184532 97 329 6.0 7.0 0.00 0.00 0.00 42 1012.7
20260905184032 98 270 6.0 8.0 0.00 0.00 0.00 42 1012.9
20260905183531 96 30 2.0 2.0 0.00 0.00 0.00 45 1013.1
20260905183027 96 59 4.0 5.0 0.00 0.00 0.00 44 1012.8
20260905182526 96 72 3.0 3.0 0.00 0.00 0.00 44 1013.0
20260905182026 97 296 3.0 3.0 0.00 0.00 0.00 44 1013.1
20260905181521 97 147 3.0 3.0 0.00 0.00 0.00 45 1013.1
20260905181021 97 23 3.0 3.0 0.00 0.00 0.00 44 1013.2
20260905180516 97 263 3.0 5.0 0.00 0.00 0.00 45 1013.3
20260905180011 95 273 3.0 5.0 0.00 0.00 0.00 46 1013.4
20260905175510 95 298 7.0 7.0 0.00 0.00 0.00 46 1013.5
20260905175006 95 289 5.0 6.0 0.00 0.00 0.00 46 1013.5
20260905174501 96 263 4.0 5.0 0.00 0.00 0.00 45 1013.7
20260905173957 97 298 5.0 6.0 0.00 0.00 0.00 45 1013.6
20260905173453 96 189 1.0 1.0 0.00 0.00 0.00 45 1013.6
20260905172948 96 336 5.0 7.0 0.00 0.00 0.00 46 1013.6
20260905172446 96 195 3.0 3.0 0.00 0.00 0.00 46 1013.9
20260905171942 96 163 4.0 6.0 0.00 0.00 0.00 48 1013.5
20260905171438 95 19 4.0 5.0 0.00 0.00 0.00 48 1013.6
20260905170934 97 119 3.0 5.0 0.00 0.00 0.00 47 1013.7
20260905170430 95 285 3.0 6.0 0.00 0.00 0.00 49 1013.5
20260905165930 95 208 1.0 1.0 0.00 0.00 0.00 47 1013.8
20260905165425 95 127 3.0 3.0 0.00 0.00 0.00 50 1014.2
20260905164920 98 38 3.0 5.0 0.00 0.00 0.00 48 1014.2
20260905164420 97 146 1.0 2.0 0.00 0.00 0.00 46 1014.4
20260905163915 95 349 3.0 5.0 0.00 0.00 0.00 49 1014.6
20260905163412 95 13 4.0 5.0 0.00 0.00 0.00 50 1014.5
20260905162908 94 136 4.0 5.0 0.00 0.00 0.00 52 1014.8
20260905162408 94 127 2.0 3.0 0.00 0.00 0.00 51 1014.6
20260905161903 95 266 3.0 3.0 0.00 0.00 0.00 51 1014.8
20260905161402 93 103 4.0 5.0 0.00 0.00 0.00 55 1014.9
20260905160900 94 329 2.0 2.0 0.00 0.00 0.00 52 1014.7
20260905160354 93 31 3.0 3.0 0.00 0.00 0.00 55 1015.0
20260905155849 92 329 3.0 5.0 0.00 0.00 0.00 55 1015.0
20260905155348 93 347 4.0 6.0 0.00 0.00 0.00 56 1014.9
20260905154847 92 45 7.0 8.0 0.00 0.00 0.00 56 1015.3
20260905154343 93 32 3.0 5.0 0.00 0.00 0.00 55 1015.0
20260905153838 93 303 3.0 3.0 0.00 0.00 0.00 56 1015.0
20260905153335 92 352 3.0 3.0 0.00 0.00 0.00 57 1015.2
20260905152834 92 117 1.0 1.0 0.00 0.00 0.00 56 1015.4
20260905152333 93 310 4.0 5.0 0.00 0.00 0.00 56 1015.0
20260905151829 92 90 1.0 2.0 0.00 0.00 0.00 56 1015.4
20260905151325 91 47 2.0 2.0 0.00 0.00 0.00 59 1015.3
20260905150824 92 247 3.0 5.0 0.00 0.00 0.00 56 1015.3
20260905150319 92 21 3.0 3.0 0.00 0.00 0.00 56 1015.4
20260905145817 93 144 0.0 0.0 0.00 0.00 0.00 55 1015.2
20260905145316 90 179 0.0 0.0 0.00 0.00 0.00 61 1015.5
20260905144815 90 129 2.0 2.0 0.00 0.00 0.00 63 1015.5
20260905144311 90 136 2.0 2.0 0.00 0.00 0.00 62 1015.2
20260905143809 92 181 2.0 2.0 0.00 0.00 0.00 59 1015.4
20260905143259 91 162 1.0 1.0 0.00 0.00 0.00 61 1015.5
20260905142757 91 169 0.0 1.0 0.00 0.00 0.00 61 1015.4
20260905142252 89 256 2.0 2.0 0.00 0.00 0.00 64 1015.5
20260905141748 87 320 2.0 2.0 0.00 0.00 0.00 67 1015.6
20260905141244 87 213 1.0 1.0 0.00 0.00 0.00 68 1015.7
20260905140739 88 277 3.0 5.0 0.00 0.00 0.00 67 1015.7
20260905140239 86 185 1.0 1.0 0.00 0.00 0.00 69 1015.7
20260905135737 87 257 2.0 2.0 0.00 0.00 0.00 69 1015.7
20260905135234 86 119 2.0 2.0 0.00 0.00 0.00 70 1015.8
20260905134733 85 350 1.0 2.0 0.00 0.00 0.00 71 1015.9
20260905134232 86 338 3.0 3.0 0.00 0.00 0.00 71 1015.9
20260905133727 86 307 2.0 3.0 0.00 0.00 0.00 69 1015.6
20260905133223 85 128 1.0 2.0 0.00 0.00 0.00 71 1015.8
20260905132721 84 180 1.0 1.0 0.00 0.00 0.00 72 1015.9
20260905132217 84 259 1.0 1.0 0.00 0.00 0.00 73 1015.7
20260905131712 84 261 1.0 1.0 0.00 0.00 0.00 74 1015.8
20260905131208 85 91 1.0 2.0 0.00 0.00 0.00 73 1015.7
20260905130707 84 200 0.0 0.0 0.00 0.00 0.00 74 1015.7
20260905130202 82 201 0.0 1.0 0.00 0.00 0.00 78 1015.5
20260905125702 82 192 0.0 1.0 0.00 0.00 0.00 78 1015.7
20260905125157 81 189 0.0 0.0 0.00 0.00 0.00 79 1015.7
20260905124654 80 191 0.0 0.0 0.00 0.00 0.00 81 1015.6
20260905124149 80 239 1.0 1.0 0.00 0.00 0.00 82 1015.8
20260905123644 79 211 1.0 1.0 0.00 0.00 0.00 82 1015.6
20260905123142 79 243 1.0 1.0 0.00 0.00 0.00 83 1015.9
20260905122641 78 125 1.0 1.0 0.00 0.00 0.00 83 1015.8
20260905122136 78 89 1.0 1.0 0.00 0.00 0.00 84 1015.8
20260905121630 77 85 1.0 1.0 0.00 0.00 0.00 86 1015.9
20260905121126 76 188 0.0 1.0 0.00 0.00 0.00 88 1015.5
20260905120625 76 251 2.0 2.0 0.00 0.00 0.00 89 1015.7
20260905120120 75 226 1.0 1.0 0.00 0.00 0.00 91 1015.4
20260905115619 75 221 0.0 1.0 0.00 0.00 0.00 92 1015.2
20260905115114 75 222 0.0 0.0 0.00 0.00 0.00 92 1015.6
20260905114614 74 222 1.0 1.0 0.00 0.00 0.00 92 1015.5
20260905114113 74 203 0.0 0.0 0.00 0.00 0.00 93 1015.0
20260905113608 74 200 0.0 0.0 0.00 0.00 0.00 93 1015.4
20260905113103 74 200 0.0 0.0 0.00 0.00 0.00 93 1014.9
20260905112558 73 200 0.0 0.0 0.00 0.00 0.00 93 1015.2
20260905112054 73 200 0.0 0.0 0.00 0.00 0.00 93 1014.8
20260905111548 74 200 0.0 0.0 0.00 0.00 0.00 93 1014.8
20260905111048 74 200 0.0 0.0 0.00 0.00 0.00 92 1014.8
20260905110547 74 199 0.0 0.0 0.00 0.00 0.00 92 1014.7
20260905110042 74 199 1.0 1.0 0.00 0.00 0.00 91 1014.7
20260905105542 75 198 0.0 0.0 0.00 0.00 0.00 90 1014.5
20260905105041 75 269 1.0 1.0 0.00 0.00 0.00 89 1014.7
20260905104538 75 264 1.0 1.0 0.00 0.00 0.00 91 1014.5
20260905104037 75 239 1.0 1.0 0.00 0.00 0.00 91 1014.5
20260905103532 75 307 0.0 0.0 0.00 0.00 0.00 92 1014.7
20260905103028 75 307 0.0 0.0 0.00 0.00 0.00 91 1014.4
20260905102524 75 307 0.0 0.0 0.00 0.00 0.00 91 1014.5
20260905102020 75 304 0.0 0.0 0.00 0.00 0.00 91 1014.4
20260905101519 75 268 1.0 1.0 0.00 0.00 0.00 91 1014.5
20260905101017 75 211 0.0 0.0 0.00 0.00 0.00 91 1014.5
20260905100514 75 212 0.0 0.0 0.00 0.00 0.00 92 1014.5
20260905100013 75 212 0.0 0.0 0.00 0.00 0.00 91 1014.5
20260905095508 75 212 0.0 0.0 0.00 0.00 0.00 90 1014.7
20260905095003 75 212 0.0 0.0 0.00 0.00 0.00 90 1014.7
20260905094458 75 212 0.0 0.0 0.00 0.00 0.00 90 1014.5
20260905093956 75 211 0.0 0.0 0.00 0.00 0.00 91 1014.7
20260905093452 75 194 0.0 0.0 0.00 0.00 0.00 91 1014.6
20260905092948 75 194 0.0 0.0 0.00 0.00 0.00 91 1014.5
20260905092443 75 196 0.0 0.0 0.00 0.00 0.00 91 1014.4
20260905091939 75 212 0.0 1.0 0.00 0.00 0.00 93 1014.5
20260905091438 75 110 1.0 1.0 0.00 0.00 0.00 94 1014.4
20260905090938 75 113 0.0 0.0 0.00 0.00 0.00 93 1014.4
20260905090433 75 113 0.0 0.0 0.00 0.00 0.00 93 1014.5
20260905085932 75 113 0.0 0.0 0.00 0.00 0.00 93 1014.4
20260905085432 75 122 0.0 0.0 0.00 0.00 0.00 93 1014.6
20260905084928 75 121 0.0 0.0 0.00 0.00 0.00 93 1014.6
20260905084427 75 348 0.0 0.0 0.00 0.00 0.00 93 1014.7
20260905083922 75 347 0.0 0.0 0.00 0.00 0.00 93 1014.7
20260905083418 75 348 0.0 0.0 0.00 0.00 0.00 93 1014.7